Regional Weather Roundup
Issued by NWS

Home | Current Version | Previous Version | Text Only | Print | Product List | Glossary On
Versions: 1 2 3 4 5 6 7 8 9 10 11 12 13 14 15 16 17 18 19 20 21 22 23 24 25 26 27
000
ASUS42 KKEY 252110
RWRKEY

FLORIDA REGIONAL WEATHER ROUNDUP FOR THE FLORIDA KEYS
NATIONAL WEATHER SERVICE KEY WEST FLORIDA
500 PM EDT MON SEP 25 2017

...SOUTH FLORIDA AND THE KEYS...

CITY           SKY/WX    TMP DP  RH WIND       PRES   REMARKS
FORT MYERS     MOSUNNY   86  77  74 SW3       29.81F HX  97
SW REGIONAL AP MOSUNNY   89  73  59 W5        29.82S HX  97
NAPLES         MOSUNNY   88  74  63 W7        29.83S HX  96
MIAMI          PTSUNNY   86  77  74 S9        29.82F HX  97
WEST KENDALL   CLOUDY    83  75  77 S7        29.83F HX  90
HOMESTEAD      CLOUDY    81  75  83 S7        29.83F
MARATHON       MOSUNNY   88  74  63 S6        29.85R HX  96
KEY WEST INTL  CLOUDY    86  76  71 SE6       29.84S HX  96

...INTERNATIONAL WEATHER...

CITY           SKY/WX    TMP DP  RH WIND       PRES   REMARKS
NASSAU BAHAMAS NOT AVBL
CANCUN MEXICO  PTSUNNY   79  77  94 S6        29.81R
COZUMEL MEXICO CLOUDY    84  77  79 SE12      29.77F HX  94

ADJACENT COASTAL WATERS...

STATION/POSITION TIME  SKY/WX   TEMP    WIND        PRES    WAVE
                                AIR SEA DIR/SP/G            HT/PER
                 (UTC)          (F)     (DEG/KT/KT) (MB)    (FT/S)
PULASKI SHOAL LI 2000            84     140/  6/  7 1011.0F
SAND KEY         2050            83                 1011.0F
LONG KEY         NOT AVBL
MOLASSES REEF    2000            85 85  180/  6/  7 1011.0F
FOWEY ROCKS      2000            85 86  180/  7/  9 1011.0F
Buoy 42097       2030               86                N/A     1

$$




USA.gov is the U.S. government's official web portal to all federal, state and local government web resources and services.